Wind_Speed
6 6 5 4 4 3 2 2 3 3 3 4 4 4 4 4 4 5 4 4 5 5 6 6 6 5 5 5 6 7 6 3 2 2 3 3 5 7 10 12 12 11 10 9 7 5 3 4 5 6 8 7 6 6 6 6 7 5 2 1 4 3 4 5 6 5 4 1 2 3 5 11 5 6 11 9 12 18 17 15 12 8 10 16 21 29 32 30
6 6 5 4 3 3 3 3 4 4 4 5 5 5 5 5 5 5 5 5 4 5 5 5 5 4 4 5 5 6 5 2 1 3 5 5 7 10 12 12 11 10 9 8 6 5 3 4 5 5 5 5 4 5 5 6 7 5 3 1 5 5 5 6 7 6 3 3 6 8 8 11 5 2 5 5 8 15 17 15 18 23 23 24 28 32 32 31
5 5 4 4 3 3 4 4 4 4 5 5 6 6 6 5 5 5 5 5 4 4 4 4 4 5 5 4 5 6 5 2 2 6 8 8 9 12 13 12 11 10 9 8 6 5 3 3 5 5 4 4 4 5 4 4 6 4 3 2 6 6 5 7 9 8 5 9 12 11 11 13 9 3 5 9 11 13 11 8 15 25 28 30 31 32 32 32
5 4 4 4 4 4 4 4 5 5 6 7 7 7 6 6 6 6 6 5 5 5 4 4 5 5 4 3 4 5 3 2 4 8 10 10 11 12 13 12 11 10 9 8 6 4 3 3 3 5 4 4 4 4 4 5 5 3 4 5 5 5 3 7 9 6 6 12 14 12 13 14 12 11 9 11 10 8 7 5 11 23 30 32 31 31 31 31
5 5 5 5 5 5 6 6 6 7 8 8 8 7 6 6 6 7 7 7 7 6 5 5 5 5 4 3 4 4 2 2 4 9 11 11 12 13 13 12 10 9 8 7 5 3 3 2 2 3 3 2 2 3 3 4 5 3 6 8 3 5 2 4 3 3 7 15 16 12 10 9 11 16 13 11 8 3 5 7 16 24 28 31 31 31 30 30
6 6 6 6 6 7 7 7 7 8 9 9 9 7 6 7 7 7 8 7 7 6 6 5 5 5 4 4 5 5 3 2 5 10 12 13 13 13 13 12 9 8 7 6 4 3 3 3 2 1 2 1 1 3 1 1 4 3 5 6 3 4 4 3 3 5 9 15 12 9 11 14 16 16 18 21 14 6 8 12 20 24 26 29 30 30 30 29
6 7 7 7 7 7 7 7 8 8 9 10 10 8 7 8 8 8 8 7 6 6 6 5 5 5 5 5 4 5 7 6 8 11 11 12 13 12 12 11 8 7 7 6 5 4 5 3 2 1 2 1 1 2 2 5 2 4 4 4 3 3 3 4 4 7 11 15 14 15 16 13 13 11 16 22 16 13 17 17 20 23 25 28 28 28 28 28
7 7 7 6 6 6 7 7 7 8 9 9 9 8 8 8 9 9 9 8 7 6 5 5 5 4 4 4 3 5 9 10 11 11 11 11 11 12 12 10 8 7 6 5 4 3 4 2 1 1 1 1 1 1 3 5 1 4 3 3 3 2 4 6 10 13 16 20 21 22 19 16 18 17 16 16 14 19 20 20 21 23 25 26 27 26 26 27
7 6 6 6 5 5 6 6 7 8 8 9 9 9 9 9 9 9 8 7 7 5 4 4 4 4 4 3 3 5 9 11 11 11 11 11 12 12 11 10 7 5 5 4 3 2 2 1 2 1 0 1 2 1 3 3 1 1 2 2 2 5 9 12 14 17 21 22 22 21 16 14 16 15 14 11 14 19 21 23 21 23 25 25 25 24 25 26
6 5 5 4 4 4 5 6 7 7 8 9 9 9 9 10 9 9 8 7 5 4 4 3 3 3 3 3 5 4 7 10 10 12 12 13 14 12 10 9 7 5 3 2 1 1 1 1 2 2 1 1 1 1 2 2 1 3 1 1 3 6 6 8 11 17 22 16 17 18 9 9 9 5 7 7 13 18 21 24 21 23 24 23 23 23 24 24
5 4 4 3 3 3 4 5 5 7 8 9 9 9 9 10 9 9 8 5 4 4 3 2 2 3 4 6 10 7 9 9 8 13 14 14 14 13 10 8 7 5 2 1 1 1 1 0 2 3 2 1 0 2 1 1 3 5 1 2 3 6 6 7 12 17 15 7 16 24 11 12 13 6 6 7 13 18 22 23 21 22 22 22 22 22 22 23
4 3 3 3 3 3 3 3 4 6 7 9 9 10 10 10 10 8 7 6 5 4 2 1 1 4 5 8 14 11 10 8 8 16 18 16 14 12 10 8 6 4 2 1 1 1 2 3 3 2 1 1 1 1 1 4 5 2 1 0 4 7 5 5 7 12 6 6 19 21 8 9 11 6 8 12 16 19 22 23 21 22 21 21 21 21 22 21
5 4 3 2 2 2 2 3 4 5 7 8 9 10 10 10 9 8 7 6 4 2 0 2 3 5 4 7 13 13 11 9 9 15 19 16 11 9 10 7 3 3 2 2 1 1 1 2 2 1 1 1 1 1 2 5 3 1 2 2 3 7 3 3 2 8 3 9 16 8 1 2 6 5 11 15 18 20 22 22 21 21 20 20 20 21 20 20
6 5 4 3 3 2 2 3 4 5 7 8 9 9 9 9 9 8 7 5 2 2 4 5 6 6 5 6 10 14 12 10 10 14 19 15 8 6 8 5 4 5 4 3 3 3 3 2 3 3 3 3 2 2 3 5 4 0 2 3 2 3 2 6 5 4 3 7 8 4 1 3 1 5 11 12 14 19 22 21 20 20 19 20 19 20 20 19
6 5 4 4 3 3 3 3 4 5 7 7 9 8 8 8 8 7 6 5 4 5 6 7 7 6 8 7 8 13 13 12 13 16 18 14 9 7 7 6 6 6 6 6 5 5 5 5 8 7 4 5 5 2 3 4 4 3 2 2 3 2 4 6 8 7 3 4 2 5 2 1 2 7 8 9 12 18 22 20 18 19 18 18 18 18 19 18
5 4 3 3 3 4 4 3 4 5 6 7 8 8 7 7 6 6 6 6 6 6 5 6 5 5 7 6 6 13 19 19 19 18 15 12 9 8 7 6 6 5 6 7 7 7 6 7 10 12 11 7 5 3 4 4 4 4 3 1 3 2 4 4 5 13 9 4 8 7 5 1 2 8 8 9 14 18 21 19 18 18 17 17 17 17 17 18
4 3 2 2 3 3 4 4 4 4 5 5 5 6 6 5 4 6 9 12 11 9 7 5 1 3 7 7 7 14 20 23 22 17 13 10 9 8 6 5 5 4 5 7 8 7 6 6 5 7 11 7 2 3 4 4 4 4 4 2 2 1 2 4 2 12 15 5 6 8 6 3 2 9 9 10 14 16 19 19 17 17 17 16 16 16 17 17
3 2 2 2 2 3 4 5 5 5 5 4 2 4 7 7 6 5 7 7 5 6 8 7 3 2 5 10 11 11 15 21 23 18 12 7 8 10 6 6 6 3 4 6 7 9 7 7 6 3 6 7 4 6 4 1 1 2 3 1 3 3 1 3 4 7 11 9 7 7 7 4 4 8 8 9 12 14 17 18 17 16 16 15 16 15 15 15
2 2 2 3 4 4 6 6 6 6 4 3 1 5 8 12 12 10 10 9 9 7 4 9 9 4 1 11 14 10 10 20 23 17 12 7 7 10 7 6 7 4 4 4 6 11 7 7 9 4 5 6 5 2 3 4 4 3 3 3 2 3 4 3 2 3 6 9 7 5 6 6 4 5 6 8 10 13 16 15 15 15 15 15 14 14 14 15
3 3 4 5 5 6 7 6 6 5 3 3 3 6 7 9 10 11 17 21 20 15 8 10 12 7 4 10 16 12 8 17 25 20 15 10 5 7 9 6 6 8 6 2 2 8 8 7 5 2 4 6 6 4 5 3 3 3 2 2 3 3 3 4 1 4 4 6 6 5 7 5 4 3 5 9 10 12 15 14 14 14 14 15 15 15 15 15
5 5 5 6 6 7 7 6 5 3 2 3 5 7 7 5 5 7 14 18 16 15 15 15 14 12 9 11 15 15 11 16 26 25 19 15 7 4 10 8 5 8 6 1 1 4 8 7 3 4 5 5 4 2 2 2 2 2 3 2 2 1 2 3 1 5 5 5 3 4 7 5 2 2 4 10 9 10 15 15 14 16 15 15 16 15 16 15
7 7 6 7 7 6 6 5 3 2 2 3 5 5 7 7 8 11 14 13 11 13 14 15 16 15 12 11 12 16 19 19 23 27 23 18 14 7 9 11 6 4 6 3 3 4 7 5 6 8 4 2 3 4 4 4 4 4 2 3 3 1 2 3 1 6 7 4 3 3 6 3 0 1 5 10 7 7 15 16 14 17 17 17 18 17 18 18
7 7 6 6 6 5 5 3 1 1 2 3 4 3 7 12 13 15 15 11 9 10 11 13 16 17 15 12 9 13 22 19 18 26 26 19 16 13 10 9 6 4 6 7 5 4 4 3 8 7 2 4 5 8 8 6 4 4 4 4 1 4 2 1 3 5 6 4 6 6 5 2 0 1 4 7 6 6 13 14 13 16 17 16 16 17 19 20
7 7 6 5 4 4 3 1 2 2 1 4 3 4 12 17 16 16 13 8 6 6 9 11 14 17 15 14 9 8 17 20 19 25 25 20 14 9 7 6 5 5 4 7 9 8 4 5 9 7 6 6 5 8 9 6 5 3 2 4 0 4 1 3 3 1 4 5 6 7 4 0 2 3 4 3 4 7 11 13 14 17 17 15 16 19 20 21
6 6 5 5 4 4 3 2 3 2 2 4 4 8 15 17 16 12 7 5 3 5 8 7 10 14 15 15 9 3 8 16 22 24 19 18 14 4 4 5 5 4 1 3 9 8 4 6 7 6 7 8 7 6 6 3 4 4 1 4 3 3 4 5 2 1 3 4 3 4 2 3 2 4 5 2 2 6 9 12 15 18 19 19 20 21 22 22
6 6 5 5 5 5 4 3 3 2 3 5 5 9 15 17 14 8 3 4 2 5 7 5 6 11 14 17 11 2 4 7 15 23 15 14 14 5 3 5 5 4 2 3 5 4 2 7 6 6 5 8 8 4 3 2 4 4 2 5 3 2 4 5 2 1 1 2 2 2 1 3 2 4 6 4 3 6 6 10 16 20 22 23 23 23 23 23
7 6 5 6 6 5 3 2 2 1 2 4 6 10 14 16 13 5 2 5 4 4 5 5 5 9 11 15 13 3 1 6 8 21 19 11 12 10 5 4 4 5 2 2 4 1 2 7 8 7 7 7 7 4 3 2 4 2 2 3 1 4 3 4 2 3 3 1 2 2 1 1 3 4 3 5 4 6 7 9 14 20 24 25 25 24 24 25
7 6 6 7 5 3 2 1 1 0 2 4 6 9 12 15 13 5 3 4 3 3 4 5 5 9 9 12 17 11 4 7 5 15 19 11 10 13 10 4 3 3 5 4 3 1 1 5 6 6 7 6 3 3 5 0 2 5 2 3 4 3 1 1 4 2 0 3 3 4 1 1 4 2 2 3 4 7 10 10 13 19 24 26 26 25 25 25
6 7 8 7 4 2 1 0 0 1 2 4 6 8 10 13 11 3 5 3 3 2 3 5 4 9 10 9 16 15 10 10 6 10 18 15 10 10 9 5 3 3 9 8 5 2 0 1 2 3 4 3 2 4 3 2 1 7 3 3 2 3 3 3 4 2 3 4 2 4 2 1 4 2 1 1 4 8 10 8 11 19 24 27 27 26 25 25
6 8 9 7 3 2 1 0 1 2 3 4 6 9 13 12 7 4 2 1 2 3 3 6 4 8 12 7 9 13 9 9 9 11 18 20 18 15 10 6 6 4 8 10 5 1 3 2 0 3 3 3 4 4 2 2 5 8 5 4 4 5 4 3 3 3 5 3 4 4 3 3 2 3 3 3 4 6 6 5 7 15 23 27 28 26 25 25
7 8 8 7 4 2 0 1 2 3 4 6 11 16 15 8 4 5 2 2 2 4 4 5 3 4 9 5 4 9 6 7 11 11 13 15 18 18 11 6 7 5 5 7 5 5 6 3 2 2 3 4 3 1 1 2 4 4 4 4 3 4 4 4 5 4 5 2 5 4 2 3 2 4 4 6 6 4 5 5 6 12 21 26 28 27 26 25
7 7 7 6 5 4 1 2 2 4 6 12 18 17 10 2 4 3 1 3 2 3 2 2 3 4 5 4 4 5 3 4 9 8 5 5 7 9 8 3 3 4 4 4 3 5 3 1 5 4 2 6 4 2 4 4 5 6 5 5 4 3 4 4 4 3 1 4 5 1 2 1 4 5 4 7 8 6 7 9 9 13 20 25 27 27 26 25
6 7 6 6 6 6 4 2 4 6 10 16 17 9 5 5 1 1 3 2 1 2 1 1 3 3 3 4 5 5 3 3 6 6 3 2 4 3 3 4 2 1 1 1 1 4 3 3 7 4 2 7 6 3 3 3 4 5 2 3 4 2 4 2 3 2 2 5 3 0 1 1 4 4 4 6 7 7 8 10 13 15 19 22 24 24 24 25
6 7 7 6 6 7 6 3 5 8 12 16 12 3 6 4 2 1 1 2 1 2 2 1 3 4 4 4 2 3 3 3 4 5 4 3 5 4 3 6 7 3 2 3 1 2 2 2 5 3 2 6 4 2 2 2 2 3 2 4 3 3 3 1 2 1 3 6 5 3 0 3 3 3 5 7 7 8 10 12 14 16 18 20 22 23 24 26
6 8 7 6 6 7 8 4 5 9 14 15 7 6 5 2 3 1 1 3 1 2 2 2 3 4 4 3 3 2 2 1 2 4 5 4 3 3 3 4 5 4 3 3 1 1 2 2 4 3 3 3 3 1 1 3 1 2 2 4 2 2 3 1 2 4 2 3 4 3 2 4 3 3 4 5 7 9 12 14 14 17 18 19 22 26 27 27
7 9 10 10 8 8 9 5 5 11 15 11 7 6 3 3 2 3 1 1 0 1 2 3 4 5 4 4 4 4 2 2 3 3 3 3 1 1 2 3 3 3 3 3 0 0 2 2 4 4 4 2 3 3 1 3 0 1 3 1 2 3 5 2 1 1 3 2 3 2 3 4 3 3 3 2 6 8 10 13 15 17 17 18 24 28 28 29
6 9 13 15 13 11 10 6 6 11 11 7 7 3 3 2 2 3 0 1 1 1 3 1 1 2 2 2 3 6 5 3 3 4 2 1 1 1 2 3 2 2 1 2 1 1 2 2 4 2 2 3 3 2 3 4 2 2 2 1 1 2 3 3 1 4 4 1 4 2 3 5 3 2 4 3 5 9 8 10 14 16 17 19 26 29 29 30
4 7 11 15 16 13 9 7 6 11 9 7 6 3 1 1 1 2 0 1 1 2 5 2 0 1 1 0 2 5 4 3 3 3 2 1 1 0 1 2 2 3 3 2 1 1 3 1 5 2 2 5 5 2 2 5 5 4 3 1 2 2 0 2 2 1 2 2 4 5 5 4 3 4 4 3 7 9 9 8 9 14 18 23 28 30 30 31
1 4 10 13 12 12 10 5 5 8 9 7 3 2 1 1 0 0 0 1 1 2 3 1 0 2 2 2 1 3 3 2 1 2 2 1 1 1 1 0 2 5 6 2 2 0 2 2 3 4 2 4 5 3 2 3 5 3 3 2 3 3 3 1 1 2 1 1 3 4 5 4 6 6 5 7 9 9 8 7 8 16 23 27 29 29 29 30
2 1 8 11 7 7 9 4 6 7 7 4 3 2 1 1 1 1 1 1 0 2 2 2 1 2 1 1 1 1 2 2 1 1 1 0 0 1 0 1 2 4 6 2 2 1 1 2 2 5 3 2 2 0 4 3 1 2 3 3 2 1 1 0 0 1 3 2 2 2 4 6 6 5 6 9 8 7 9 8 9 19 27 28 29 29 29 30
2 1 6 10 5 2 3 6 8 8 5 3 2 2 0 2 3 2 2 2 2 3 2 3 3 2 1 1 0 1 1 2 1 1 0 0 1 0 1 1 2 3 3 2 2 1 0 2 1 3 4 1 3 3 3 4 4 3 1 2 2 1 2 3 2 3 1 3 4 2 3 9 6 4 6 8 7 8 12 12 13 20 26 27 28 28 28 29
4 2 5 9 8 3 5 8 8 5 4 3 3 3 2 2 3 2 2 2 2 3 3 3 2 2 2 1 0 1 1 1 1 1 1 2 2 2 2 1 1 1 0 1 1 1 2 3 1 3 4 4 5 3 1 3 4 4 1 2 4 3 4 5 2 3 1 1 2 3 2 8 6 4 6 7 8 10 13 14 16 22 26 26 27 27 27 29
8 6 4 5 6 6 8 7 6 5 4 3 3 4 3 2 2 2 2 2 2 2 2 2 1 1 1 1 1 1 2 1 1 1 1 2 2 3 3 1 1 1 2 1 2 1 1 2 1 3 4 4 5 4 2 1 3 2 1 1 4 2 3 5 5 4 2 2 2 2 3 8 6 3 6 8 9 10 12 15 18 23 26 28 28 29 29 30
15 13 10 5 1 2 5 4 2 2 2 2 4 4 4 4 4 3 1 2 2 1 2 1 0 1 0 1 2 1 1 1 1 1 2 2 2 3 4 2 1 2 2 1 1 1 0 0 2 2 5 6 6 5 4 4 1 2 3 1 3 4 6 4 2 3 1 5 6 4 5 8 5 2 2 6 6 9 14 19 20 23 27 29 30 31 31 32
11 11 15 13 6 5 7 8 8 5 2 4 5 3 3 4 4 3 2 2 2 2 2 1 1 1 1 1 2 1 0 1 1 1 1 1 2 3 4 5 4 2 1 2 2 2 1 2 3 3 0 2 3 3 3 3 2 2 2 2 3 5 7 4 2 3 3 4 6 6 7 8 4 2 4 6 5 7 14 20 22 23 26 29 30 32 33 33
4 3 7 13 15 16 15 12 12 8 5 5 4 2 2 2 1 2 3 2 2 2 2 2 1 1 2 2 2 2 2 1 1 1 1 2 3 2 3 5 4 3 2 2 2 2 2 1 3 5 6 6 6 7 5 2 2 5 4 5 5 4 6 5 4 3 5 2 4 9 10 12 12 8 7 8 6 6 10 16 21 23 25 27 28 29 31 31
4 2 1 5 10 14 14 10 9 8 5 4 3 0 1 1 1 1 1 1 2 2 2 2 2 1 1 1 1 1 2 2 1 0 2 3 4 3 3 4 4 4 3 3 4 3 3 2 4 6 7 9 8 9 7 2 5 8 8 7 8 6 6 7 6 7 4 3 7 10 8 11 17 13 9 9 8 6 8 14 20 23 25 26 27 28 29 30
3 3 4 4 3 4 5 4 7 9 6 3 3 2 2 1 0 1 1 1 2 1 1 1 2 1 2 2 2 1 2 2 1 2 1 2 3 4 3 3 4 4 4 4 3 3 3 3 4 3 6 10 9 10 10 6 6 8 9 10 10 8 10 12 12 9 8 7 13 8 5 11 16 13 11 11 9 9 14 19 22 24 26 28 28 29 30 31
10 9 7 6 5 6 6 6 10 12 7 3 3 2 2 3 3 2 2 1 1 1 1 1 3 1 2 3 3 2 2 0 1 4 2 2 2 1 1 2 2 3 3 3 2 2 3 3 3 2 5 10 10 10 9 7 6 7 9 12 10 10 13 14 13 10 10 14 18 14 14 17 16 14 16 18 18 19 21 23 24 25 28 29 29 29 30 32
11 8 9 13 12 9 9 7 8 8 4 3 3 1 2 5 4 3 2 2 1 1 1 1 4 2 3 4 4 3 6 6 4 5 4 4 2 2 2 3 2 1 1 1 1 1 2 3 1 3 4 9 7 5 3 4 5 8 11 12 11 11 11 11 10 8 8 13 17 16 16 17 17 17 19 22 23 19 18 22 25 27 28 28 28 29 30 32
9 11 18 20 10 4 3 3 3 5 2 2 2 3 3 4 6 4 2 3 3 2 2 3 3 2 2 3 5 6 7 7 7 8 7 6 5 4 3 3 4 2 1 1 1 1 2 2 2 5 3 7 5 6 6 5 6 10 16 17 14 11 8 7 7 7 9 11 13 11 10 13 14 10 10 15 17 15 16 22 26 28 29 27 27 29 30 32
17 19 18 14 6 2 2 2 3 4 2 1 3 4 3 4 7 7 3 2 4 3 2 4 5 3 1 2 6 7 6 6 8 10 10 10 10 9 8 6 5 5 3 3 1 0 2 1 1 3 2 6 5 5 6 7 8 9 12 11 9 8 7 7 5 7 11 11 8 8 10 11 8 3 4 9 10 12 18 23 26 29 28 27 27 29 32 34
Wind_Direction
105 98 96 96 93 88 68 40 33 28 26 18 6 1 351 341 335 325 315 302 286 282 285 295 304 314 335 348 357 353 345 331 267 324 355 354 346 335 331 333 336 336 336 337 342 339 276 232 226 229 236 232 238 246 236 237 220 198 158 187 240 200 193 194 192 197 179 234 150 82 102 124 107 85 98 87 80 83 84 78 85 103 117 148 154 153 158 158
97 94 92 90 82 67 49 40 36 30 23 15 10 5 358 353 344 338 331 322 312 307 304 307 309 319 338 348 359 352 345 343 264 356 6 344 332 324 323 328 332 334 336 336 339 337 290 235 236 242 242 224 228 233 226 225 205 186 124 171 236 198 203 203 192 202 196 165 114 81 97 109 93 98 102 80 58 74 80 73 94 103 108 131 142 147 152 154
92 87 82 73 61 49 44 43 37 28 21 16 13 6 0 355 347 342 334 330 331 331 335 330 320 323 332 344 357 351 352 24 50 22 8 346 332 326 325 328 332 338 338 334 335 335 308 252 244 241 233 212 223 225 215 208 201 199 140 222 244 210 225 233 226 237 212 154 117 91 94 80 65 96 108 110 82 66 76 77 102 110 117 130 138 145 148 150
84 79 73 64 59 54 51 47 40 31 26 20 13 7 358 349 341 336 331 333 334 339 342 333 329 329 331 339 348 350 10 52 42 18 1 349 341 331 328 328 331 338 337 332 328 324 304 273 246 229 220 211 215 215 217 208 201 191 167 218 237 182 218 249 240 247 198 154 124 111 102 77 69 86 100 118 95 52 43 74 123 125 127 133 137 143 147 151
76 73 70 67 65 59 54 48 40 35 28 20 12 3 355 348 342 339 338 338 333 335 337 334 341 342 341 348 347 349 7 21 11 4 353 348 344 336 334 332 331 332 331 327 316 309 288 257 241 224 206 209 191 190 231 210 187 183 213 236 237 162 218 280 207 134 150 145 124 109 100 101 95 72 64 86 86 29 25 96 133 130 131 135 139 144 149 151
74 69 68 65 62 57 52 45 38 34 27 19 13 7 8 2 353 349 346 343 337 330 329 335 345 348 354 1 357 2 50 60 356 352 344 341 338 335 335 331 330 324 319 317 302 286 268 250 255 234 151 209 195 186 292 331 192 207 256 266 285 210 245 286 158 129 148 136 110 103 110 115 104 68 60 71 66 70 93 127 138 132 136 140 142 147 149 148
76 71 68 64 60 56 49 42 36 32 26 19 15 13 14 6 1 357 350 349 345 338 331 333 342 347 355 3 11 40 72 55 1 351 344 339 333 330 328 326 333 325 309 303 291 268 258 255 241 183 104 104 203 204 336 351 201 192 269 305 332 286 261 241 155 134 142 122 105 114 113 96 93 89 71 68 68 92 110 134 140 135 139 143 143 144 146 146
80 75 70 64 61 56 46 38 31 28 22 18 16 13 6 358 358 353 347 343 337 337 330 328 337 340 355 11 47 70 54 26 2 357 350 347 339 332 327 326 339 327 305 288 273 258 255 242 170 136 95 165 177 223 352 351 287 163 238 303 346 24 105 134 123 124 121 113 116 109 93 78 89 99 75 62 84 99 115 134 135 137 139 140 138 137 142 144
75 71 63 60 58 52 43 32 25 20 14 12 9 7 1 352 349 345 345 336 327 328 321 331 335 339 4 17 66 70 31 8 360 1 357 356 348 336 326 324 339 331 304 279 266 274 255 125 82 43 341 210 191 279 14 19 292 185 217 309 9 98 113 122 114 121 120 119 122 102 84 85 88 90 69 64 96 104 124 131 132 139 135 132 131 132 139 142
64 61 56 55 51 46 36 25 17 10 7 4 357 356 353 347 342 337 337 331 330 327 320 337 326 354 25 38 76 72 11 3 3 0 356 355 345 332 322 319 338 342 313 290 273 268 240 103 47 8 314 243 151 281 2 106 293 318 281 25 71 98 114 131 118 123 121 121 124 112 94 59 54 82 82 85 104 116 130 124 129 137 129 126 130 133 137 141
45 46 42 36 34 31 18 12 7 1 358 353 346 344 341 341 339 335 334 327 328 330 330 340 340 55 75 66 72 60 5 6 6 0 354 350 339 326 326 330 345 357 339 336 292 227 236 296 349 355 311 234 9 290 303 69 335 323 330 55 52 66 90 119 127 135 118 106 126 119 103 36 36 68 103 122 117 125 130 119 125 130 124 127 131 135 138 141
12 18 18 14 14 4 352 346 347 346 343 343 339 336 339 342 340 338 337 322 313 318 323 325 30 101 111 64 53 34 11 9 355 354 349 348 345 330 335 341 351 17 7 358 340 266 263 281 312 338 296 189 333 341 13 342 338 314 81 310 320 25 72 95 134 158 115 133 137 116 95 19 22 67 112 127 123 128 126 114 119 121 123 128 131 136 137 140
339 340 340 339 337 328 323 319 327 332 333 336 332 334 341 346 347 347 340 328 318 311 232 107 107 114 113 61 40 23 13 4 342 340 340 351 357 336 341 351 22 64 43 38 36 328 290 295 320 352 29 36 281 350 329 331 350 183 64 80 321 10 37 25 125 175 88 149 152 95 42 329 13 102 126 126 126 130 118 108 116 118 123 128 130 136 134 139
326 322 311 300 305 308 311 315 323 329 330 332 328 335 347 353 358 1 357 1 37 82 105 107 108 99 85 71 39 23 17 4 343 334 338 357 24 4 0 23 87 94 73 60 64 54 34 31 40 42 43 21 313 294 330 354 32 80 9 46 26 10 281 351 43 126 75 166 176 18 267 216 268 145 136 132 132 133 116 107 118 119 125 130 133 138 137 142
316 310 301 289 290 301 313 320 328 329 330 331 328 339 358 3 10 19 27 43 73 92 108 110 105 90 73 68 36 22 19 10 2 352 347 2 32 34 28 53 84 83 73 59 60 62 52 73 67 43 21 7 3 11 358 359 17 29 28 321 355 32 271 331 31 50 61 163 49 22 148 150 185 166 161 154 142 136 122 115 125 126 131 135 139 143 143 148
312 309 303 292 293 300 305 315 325 330 331 331 332 348 7 14 32 49 54 63 75 83 107 119 102 68 56 46 24 24 21 15 12 5 356 7 25 29 33 52 72 65 61 60 62 70 70 82 73 49 39 28 16 46 41 14 353 4 52 306 316 8 321 317 34 30 32 115 31 26 144 130 167 161 170 165 147 139 128 125 133 135 141 144 147 152 153 156
321 315 310 309 304 299 300 309 320 325 326 330 344 8 22 33 71 83 80 82 82 75 78 105 141 49 49 32 16 19 20 18 15 12 10 16 27 25 30 51 68 65 62 71 63 60 67 63 70 51 43 42 7 47 49 9 336 333 24 32 316 277 324 306 304 19 26 72 39 32 105 120 128 133 147 161 152 144 134 136 142 143 149 152 155 159 161 164
330 321 320 318 302 299 300 303 311 313 313 316 353 53 56 59 88 103 93 89 76 67 61 46 38 126 50 20 14 5 10 18 16 17 20 22 29 27 43 62 56 77 81 80 54 37 46 40 50 62 28 23 8 48 78 237 243 298 322 323 324 305 264 306 292 349 24 60 57 47 88 98 87 107 131 152 155 147 138 143 148 151 155 157 162 165 168 173
319 311 311 305 298 302 301 301 308 303 297 291 241 116 91 79 86 85 80 77 64 67 46 23 38 114 50 8 14 4 8 23 21 23 27 31 44 38 58 65 43 61 80 76 32 26 38 34 41 41 357 351 343 32 163 191 176 219 260 204 235 295 282 282 304 350 57 69 39 47 103 116 104 97 121 142 155 147 141 149 153 157 162 164 171 175 178 183
325 321 313 309 306 307 306 306 310 300 286 269 205 151 131 97 82 70 70 72 70 72 70 47 50 69 59 17 18 18 22 29 27 29 29 31 50 43 40 35 35 51 52 71 6 26 54 56 41 15 300 289 297 274 214 189 163 205 182 160 228 233 305 313 311 348 55 84 26 51 102 103 111 114 135 146 150 144 145 153 158 166 173 177 182 185 189 192
336 332 323 320 314 312 310 304 309 295 261 241 198 171 174 146 104 95 81 74 71 71 65 57 54 53 47 27 23 26 28 30 31 33 32 28 36 35 26 27 52 42 7 325 92 37 60 62 0 302 269 254 297 296 178 132 75 67 136 116 354 204 280 335 75 342 3 90 60 79 97 73 100 139 161 156 153 162 166 165 171 180 184 189 194 196 197 197
340 334 328 324 313 310 306 295 304 275 241 214 193 191 190 163 129 117 105 88 76 72 63 55 52 47 41 36 32 29 29 28 25 26 25 27 39 48 39 45 64 32 345 11 69 27 47 46 325 307 248 173 29 33 75 73 70 48 56 99 39 329 298 311 349 6 13 91 140 138 98 58 22 165 186 181 186 197 185 183 191 193 192 198 203 205 203 202
339 333 328 321 314 314 305 278 268 271 224 181 187 206 174 158 135 114 109 104 84 63 51 47 42 36 33 32 29 34 41 36 11 10 14 19 35 45 49 54 58 36 13 37 78 64 55 352 325 338 125 117 33 21 44 44 47 50 46 78 4 326 37 318 321 18 21 67 140 137 99 70 26 179 213 213 229 220 199 204 210 204 205 211 216 217 214 210
336 331 326 322 320 322 322 241 244 308 231 183 177 172 158 151 140 124 110 102 90 47 36 38 31 28 24 17 16 37 49 43 18 6 8 14 26 40 47 50 54 54 40 53 78 86 66 316 327 11 58 79 55 25 33 34 11 0 79 100 60 313 308 246 285 54 28 38 119 122 77 53 192 200 230 234 224 212 206 211 213 212 216 221 223 223 222 221
333 330 326 327 325 327 334 245 248 299 236 194 176 166 160 155 148 136 106 86 77 7 16 24 20 22 15 11 22 81 60 44 26 9 6 18 24 44 51 39 51 52 179 86 71 79 46 340 347 30 37 45 65 39 23 30 7 343 258 164 185 278 275 269 299 88 31 0 188 139 45 295 239 218 228 208 193 210 208 211 214 214 216 220 221 222 223 224
334 332 329 326 324 327 318 254 249 283 225 192 181 172 170 169 161 146 80 65 36 332 359 8 8 15 11 9 12 89 65 32 20 13 16 30 28 58 58 16 43 49 190 154 75 93 24 358 30 65 49 42 52 41 3 50 51 353 254 173 175 273 283 270 264 131 94 291 241 137 128 269 290 247 222 191 211 231 221 217 219 219 219 221 224 225 225 224
332 333 334 330 327 332 318 258 259 271 196 182 182 177 177 179 171 163 33 43 6 315 354 358 0 13 17 16 17 73 30 328 356 15 23 40 37 65 78 2 44 31 319 140 65 52 331 360 23 40 40 43 42 16 323 60 81 311 261 115 324 302 288 263 185 150 200 182 29 28 121 255 286 261 199 163 208 243 237 231 228 224 223 224 227 229 229 228
332 334 339 338 332 336 336 285 289 178 168 177 178 178 184 184 180 171 78 71 335 325 10 352 4 18 31 45 43 69 54 356 4 10 20 47 46 62 76 53 104 24 354 114 127 271 333 9 14 29 35 35 28 303 289 50 126 264 280 41 315 285 211 169 116 119 233 76 9 301 127 68 278 286 76 141 216 251 241 232 228 225 224 226 229 232 232 233
331 335 342 345 342 337 336 319 26 128 152 165 168 177 180 174 172 130 73 114 319 356 15 355 3 2 11 51 46 47 48 36 34 1 23 49 51 65 81 51 87 60 26 72 131 206 41 6 356 70 55 4 291 275 268 126 265 284 317 53 24 48 69 77 94 91 45 57 327 274 150 130 279 273 97 167 233 247 241 233 228 226 227 228 230 233 234 235
333 339 346 350 351 338 312 131 89 124 141 155 160 155 151 147 136 75 60 207 343 349 336 4 3 341 359 28 29 24 38 35 15 8 28 42 46 62 87 62 48 68 34 44 73 302 308 303 296 84 48 307 279 289 265 187 285 308 353 41 47 37 30 45 59 79 61 14 267 245 181 150 301 272 196 196 225 222 220 230 229 226 229 231 232 235 236 236
339 346 352 360 9 359 336 138 121 144 147 148 147 140 138 131 78 89 127 251 325 341 350 11 356 357 20 43 13 4 19 16 9 18 24 27 35 40 48 37 22 42 28 16 16 342 349 20 344 332 347 329 312 314 311 283 315 357 25 26 39 10 3 19 357 35 64 307 251 244 239 161 208 266 223 220 236 205 192 213 221 223 228 232 234 236 237 238
354 355 359 13 20 15 37 161 150 148 149 144 144 143 138 74 22 102 256 311 322 341 8 338 327 11 25 34 17 350 354 4 10 32 33 21 35 32 40 42 355 31 20 346 344 348 358 357 323 317 337 5 23 23 344 345 6 27 31 36 55 12 3 16 337 3 82 255 236 247 335 189 225 252 224 222 233 219 213 224 233 234 235 237 237 237 238 238
5 4 6 18 22 21 42 140 149 144 154 152 151 146 90 73 52 241 289 330 5 333 3 287 328 358 10 28 14 336 3 8 359 25 33 52 58 36 61 54 26 66 37 1 30 4 342 303 340 3 359 7 40 82 356 340 356 8 38 76 90 82 40 346 294 340 301 271 258 41 21 271 278 276 221 216 224 226 238 247 253 252 248 246 243 241 241 240
21 19 13 17 22 23 40 94 141 142 154 155 152 100 57 84 214 248 293 277 304 344 16 19 332 353 35 53 348 320 38 17 358 27 11 28 46 6 348 14 18 47 76 62 61 47 70 311 344 20 328 353 36 136 174 188 317 322 165 120 108 138 121 235 240 232 286 291 300 331 67 206 259 273 219 225 246 256 258 262 265 263 255 251 248 244 242 242
35 28 24 27 26 25 38 71 139 142 154 154 117 59 86 157 234 173 244 261 299 336 322 0 37 36 17 355 331 348 77 3 22 54 20 26 63 3 339 337 357 31 72 58 348 82 94 253 279 308 298 348 8 286 146 111 356 301 131 86 35 183 146 114 196 191 214 307 303 303 250 214 223 249 236 243 270 269 261 262 267 264 255 247 245 243 241 243
55 41 41 42 38 34 38 54 141 147 157 152 78 54 155 194 204 172 196 267 38 332 310 341 40 52 351 317 341 354 5 17 44 59 27 35 89 358 326 281 328 30 90 107 177 8 72 264 279 333 332 356 8 322 36 70 296 340 49 25 263 178 128 97 302 345 68 40 289 282 272 292 317 300 290 300 285 275 263 260 261 260 256 245 242 242 242 244
58 44 44 45 44 39 33 47 130 155 158 128 79 91 204 198 161 181 198 44 198 99 80 38 6 46 346 314 323 330 344 12 33 48 50 24 20 352 328 292 309 22 96 148 175 169 123 269 289 352 347 313 348 344 2 35 81 88 49 260 245 83 91 99 38 358 32 352 281 299 274 293 332 306 314 323 274 267 258 251 255 259 256 246 242 243 244 246
54 39 37 36 37 35 32 51 114 154 142 85 77 122 175 165 176 214 296 60 194 82 76 98 242 94 159 228 308 311 346 9 3 37 68 6 16 178 326 302 285 5 18 138 131 64 106 338 295 264 224 305 347 35 313 357 46 99 136 179 85 86 2 41 61 353 0 298 290 308 294 268 213 229 277 259 238 249 249 238 245 252 247 242 242 244 246 249
41 39 30 20 21 28 32 60 133 144 114 79 85 153 138 158 207 261 349 8 151 86 76 142 220 50 125 141 276 298 351 27 3 46 93 54 1 204 110 265 272 350 12 99 139 273 116 100 287 268 245 307 359 56 215 312 359 49 68 17 38 123 173 207 70 168 172 243 281 318 321 275 226 215 213 222 227 231 236 231 230 239 240 241 242 246 251 253
239 74 28 11 9 26 29 74 120 96 83 97 152 159 125 145 129 68 52 23 110 86 87 186 149 55 44 159 209 296 21 61 73 57 89 111 354 259 178 176 248 327 349 36 100 44 76 105 254 285 328 359 341 226 176 184 279 2 22 3 354 14 120 120 281 147 129 156 201 311 308 271 245 207 193 219 231 221 218 221 228 236 240 244 247 251 256 259
162 114 18 14 23 24 44 79 73 61 73 107 119 105 61 133 128 73 57 87 81 74 110 147 133 115 115 96 247 252 24 36 41 71 106 251 112 242 262 189 211 305 339 26 58 39 85 116 204 288 334 332 239 238 191 179 179 162 167 187 168 100 71 77 311 305 82 154 178 161 274 270 256 200 199 216 219 219 220 220 230 240 245 251 255 258 263 266
113 87 19 36 51 96 116 76 37 33 89 84 73 93 110 121 110 61 57 76 55 58 83 108 106 112 140 143 249 212 132 61 28 115 183 228 193 192 221 223 246 264 137 117 288 239 160 107 111 266 268 247 255 275 207 187 157 133 166 172 137 123 112 122 216 266 313 237 171 116 258 270 259 203 209 219 214 224 231 229 237 248 254 259 263 267 270 271
84 68 38 64 79 97 104 74 15 20 70 77 90 89 88 106 91 61 55 37 18 45 56 59 79 89 156 195 173 152 144 134 190 191 203 233 232 206 200 221 278 199 145 154 259 217 129 79 50 289 293 307 311 329 22 64 97 115 254 150 137 150 136 148 177 183 204 240 160 100 260 266 272 235 217 230 238 249 253 250 250 255 262 266 268 271 274 275
80 64 46 53 177 147 106 109 106 77 73 93 86 62 57 79 67 51 45 18 17 92 87 61 122 117 164 136 106 149 177 136 191 211 177 196 230 221 203 209 219 170 160 205 166 126 210 120 78 359 339 343 343 351 348 340 1 207 236 187 151 113 102 122 138 108 245 230 166 149 246 257 275 322 260 250 263 270 265 263 262 263 267 271 273 275 277 278
83 62 49 55 88 117 105 123 134 134 140 103 79 32 37 62 50 46 70 60 53 93 101 84 157 123 97 86 68 48 55 88 253 257 117 220 252 229 211 221 224 196 196 216 168 122 174 170 117 104 61 291 289 287 274 270 264 246 232 204 189 136 131 154 118 104 240 233 161 172 238 256 262 308 293 274 268 272 271 273 277 276 276 278 280 282 283 283
97 75 44 51 70 84 89 106 116 117 141 122 80 9 51 71 20 39 67 72 62 82 85 71 142 117 50 61 64 356 330 7 39 113 164 242 262 242 213 222 229 229 222 195 180 129 107 184 192 173 185 206 221 238 234 181 236 266 261 238 215 172 144 126 111 176 204 177 207 223 238 269 276 269 272 272 261 261 269 277 284 286 287 288 288 289 289 288
89 79 47 56 67 74 78 90 101 107 138 138 105 113 109 82 319 15 52 88 82 101 89 54 63 119 77 92 104 276 293 346 17 137 188 227 261 285 251 229 225 228 209 176 179 138 93 286 242 195 217 233 233 249 255 214 235 250 254 247 223 194 159 150 184 213 156 117 260 241 211 251 269 270 265 266 262 258 265 278 286 289 291 292 291 290 290 289
101 106 109 115 112 81 71 87 107 102 101 109 114 133 110 83 149 172 176 129 87 112 134 42 10 32 168 157 127 156 308 354 316 248 220 227 277 333 315 242 206 197 171 155 179 143 124 252 241 183 247 258 250 260 262 246 246 246 242 244 233 202 183 193 216 211 161 202 254 254 207 239 263 273 266 260 264 273 281 287 290 290 291 292 291 290 289 289
120 117 98 96 112 117 112 121 117 102 79 64 96 115 141 147 176 215 215 108 24 354 114 186 266 258 178 171 127 138 224 174 271 265 222 188 248 318 334 261 205 188 168 151 188 159 145 251 244 168 283 279 262 260 254 238 253 259 242 237 230 216 205 211 226 216 200 234 254 264 268 266 267 269 268 272 277 279 283 288 287 287 290 291 291 289 289 289
132 134 124 110 99 98 107 118 118 101 57 34 84 128 169 155 176 221 207 157 179 282 132 187 249 233 171 166 146 182 217 187 200 244 195 160 238 220 201 223 178 136 88 125 144 143 164 274 286 97 313 292 288 304 282 220 241 265 263 249 234 234 233 227 232 223 219 248 258 264 272 273 269 265 267 273 275 274 276 279 281 283 286 288 287 288 290 291
139 142 135 120 96 52 93 108 105 98 54 8 127 171 201 193 190 178 171 199 197 205 200 195 213 195 129 158 192 230 238 208 217 240 215 197 224 217 211 213 163 129 14 141 168 131 154 274 0 53 341 283 308 1 347 313 290 277 274 263 240 230 234 224 215 201 202 231 255 267 267 265 269 269 261 261 261 261 266 271 277 282 284 284 284 287 290 291
135 138 137 121 90 358 112 97 60 87 117 234 166 168 200 205 186 160 132 248 219 202 217 193 171 145 126 216 230 242 257 255 257 261 249 238 241 239 241 233 191 177 161 136 166 273 126 132 9 38 315 274 302 350 337 330 323 286 267 251 218 199 217 239 239 214 208 216 238 251 249 256 275 291 257 259 253 254 265 271 277 281 283 283 283 286 290 292
Height
1534 1534 1534 1534 1534 1534 1534 1534 1533 1533 1533 1532 1532 1531 1531 1530 1530 1530 1529 1529 1529 1529 1529 1529 1529 1528 1528 1528 1528 1527 1527 1527 1527 1527 1527 1527 1527 1527 1526 1526 1525 1524 1524 1523 1522 1522 1522 1522 1523 1523 1524 1524 1525 1525 1526 1526 1527 1527 1530 1533 1533 1535 1533 1528 1527 1527 1524 1522 1524 1525 1524 1525 1529 1531 1531 1533 1534 1534 1536 1537 1537 1537 1537 1538 1541 1544 1546 1549
1534 1534 1534 1534 1534 1534 1534 1534 1533 1533 1533 1532 1532 1531 1531 1530 1530 1530 1529 1529 1529 1529 1529 1529 1528 1528 1528 1528 1528 1527 1527 1527 1527 1527 1527 1527 1527 1526 1526 1525 1525 1524 1523 1523 1522 1522 1522 1522 1522 1523 1523 1524 1524 1525 1525 1525 1525 1526 1531 1533 1531 1530 1527 1523 1523 1522 1522 1522 1523 1525 1525 1525 1529 1532 1531 1534 1538 1537 1537 1541 1540 1538 1541 1542 1544 1547 1549 1551
1534 1534 1535 1535 1535 1535 1534 1534 1534 1533 1533 1532 1532 1531 1531 1530 1530 1529 1529 1529 1529 1528 1528 1528 1528 1528 1528 1528 1528 1527 1527 1527 1527 1527 1527 1527 1526 1526 1525 1524 1524 1523 1523 1522 1522 1521 1521 1522 1522 1522 1523 1523 1524 1524 1524 1524 1525 1525 1529 1530 1526 1524 1524 1521 1521 1521 1521 1521 1522 1525 1525 1526 1530 1531 1531 1535 1539 1540 1541 1544 1543 1541 1543 1545 1547 1550 1551 1552
1534 1535 1535 1535 1535 1534 1534 1534 1534 1533 1533 1532 1532 1531 1531 1530 1530 1529 1529 1529 1528 1528 1528 1528 1528 1527 1527 1527 1527 1527 1526 1527 1527 1528 1527 1527 1526 1525 1524 1524 1523 1523 1522 1522 1521 1521 1521 1521 1521 1521 1522 1523 1523 1524 1524 1523 1524 1525 1526 1525 1522 1523 1523 1520 1520 1520 1521 1521 1522 1524 1525 1528 1531 1531 1533 1535 1537 1542 1545 1546 1546 1545 1545 1546 1549 1551 1552 1552
1535 1535 1535 1535 1534 1534 1534 1534 1533 1533 1533 1532 1532 1531 1531 1530 1529 1529 1528 1528 1528 1528 1528 1528 1528 1527 1527 1527 1527 1526 1526 1528 1528 1528 1527 1526 1525 1524 1523 1523 1522 1522 1522 1521 1521 1521 1521 1521 1520 1521 1521 1522 1522 1522 1523 1523 1523 1524 1523 1521 1521 1523 1522 1520 1521 1521 1521 1521 1522 1525 1526 1530 1532 1534 1537 1536 1539 1546 1547 1547 1548 1547 1547 1548 1549 1550 1551 1551
1535 1535 1535 1535 1534 1534 1534 1534 1534 1533 1533 1533 1532 1531 1531 1530 1530 1529 1528 1528 1528 1528 1528 1527 1527 1527 1527 1527 1527 1526 1526 1529 1529 1527 1527 1526 1525 1524 1523 1522 1522 1521 1521 1521 1520 1520 1520 1520 1520 1521 1521 1521 1522 1522 1522 1522 1523 1523 1521 1520 1521 1522 1521 1520 1521 1521 1521 1521 1523 1526 1528 1531 1533 1538 1541 1539 1544 1549 1548 1549 1549 1548 1549 1549 1549 1550 1551 1552
1535 1535 1535 1535 1535 1535 1534 1534 1534 1533 1533 1533 1532 1532 1531 1530 1530 1529 1528 1528 1527 1527 1527 1527 1527 1527 1527 1526 1526 1526 1526 1528 1528 1527 1526 1525 1524 1523 1522 1522 1521 1520 1520 1520 1520 1520 1520 1520 1520 1520 1521 1521 1522 1522 1522 1522 1522 1522 1522 1520 1520 1520 1520 1520 1520 1521 1521 1522 1525 1527 1529 1533 1534 1539 1543 1544 1549 1551 1549 1551 1550 1550 1551 1550 1551 1552 1552 1553
1536 1536 1536 1536 1536 1535 1535 1535 1534 1534 1533 1533 1532 1532 1531 1530 1529 1529 1528 1528 1527 1527 1527 1527 1527 1526 1526 1526 1526 1526 1526 1528 1528 1527 1526 1525 1524 1522 1521 1521 1520 1520 1519 1519 1519 1519 1519 1519 1520 1519 1520 1521 1521 1522 1521 1521 1521 1522 1521 1521 1521 1520 1521 1521 1521 1521 1521 1524 1526 1527 1532 1537 1538 1540 1545 1550 1552 1552 1551 1551 1552 1552 1552 1552 1553 1553 1554 1554
1537 1537 1537 1537 1537 1536 1536 1536 1535 1534 1534 1533 1532 1531 1531 1530 1529 1529 1528 1528 1527 1527 1527 1527 1526 1526 1526 1526 1526 1526 1528 1528 1527 1526 1525 1524 1523 1522 1520 1519 1519 1519 1518 1519 1519 1519 1519 1519 1519 1519 1520 1520 1521 1521 1521 1521 1521 1522 1521 1521 1521 1521 1522 1521 1522 1522 1522 1526 1527 1529 1538 1542 1541 1542 1549 1555 1554 1553 1553 1551 1553 1553 1553 1554 1554 1555 1556 1556
1538 1538 1538 1537 1537 1537 1536 1536 1535 1534 1534 1533 1532 1531 1531 1530 1529 1529 1528 1528 1527 1527 1527 1526 1527 1526 1526 1526 1526 1528 1529 1528 1527 1526 1525 1524 1523 1521 1520 1519 1519 1519 1518 1518 1518 1519 1519 1519 1519 1519 1520 1520 1520 1520 1521 1521 1521 1522 1521 1521 1522 1522 1523 1522 1523 1524 1524 1527 1526 1530 1540 1543 1541 1543 1552 1558 1556 1555 1553 1552 1554 1554 1554 1556 1556 1557 1557 1557
1538 1538 1538 1537 1537 1537 1536 1536 1535 1535 1534 1533 1532 1532 1531 1530 1529 1528 1528 1527 1527 1527 1526 1526 1527 1526 1527 1527 1527 1529 1530 1528 1528 1526 1525 1524 1521 1520 1519 1519 1518 1518 1518 1518 1518 1519 1519 1519 1520 1519 1519 1520 1520 1520 1521 1521 1521 1521 1521 1522 1522 1523 1524 1523 1525 1525 1525 1529 1529 1529 1538 1543 1543 1547 1556 1559 1557 1556 1553 1554 1556 1555 1556 1558 1558 1558 1559 1559
1538 1538 1538 1537 1537 1537 1536 1536 1536 1535 1534 1533 1533 1532 1531 1530 1529 1528 1527 1527 1527 1526 1526 1526 1526 1527 1527 1527 1528 1530 1529 1528 1528 1526 1524 1523 1521 1519 1519 1518 1518 1518 1518 1518 1518 1519 1519 1519 1519 1519 1519 1520 1520 1520 1520 1521 1521 1521 1521 1522 1523 1524 1525 1525 1526 1526 1527 1530 1532 1529 1533 1547 1552 1554 1560 1559 1558 1557 1554 1556 1557 1557 1558 1559 1560 1560 1560 1561
1538 1538 1537 1537 1537 1537 1536 1536 1536 1535 1534 1533 1533 1532 1531 1530 1529 1528 1527 1526 1526 1526 1526 1526 1527 1527 1527 1528 1530 1530 1530 1529 1527 1526 1524 1522 1521 1519 1519 1518 1518 1518 1519 1518 1518 1518 1519 1519 1519 1519 1519 1520 1520 1520 1520 1521 1520 1521 1523 1523 1523 1524 1524 1527 1527 1527 1529 1530 1533 1530 1531 1552 1563 1560 1560 1560 1559 1557 1556 1558 1559 1559 1560 1560 1561 1561 1562 1563
1538 1537 1537 1537 1537 1536 1536 1536 1535 1535 1534 1533 1533 1532 1531 1530 1529 1528 1527 1526 1526 1526 1527 1527 1527 1527 1528 1529 1531 1531 1530 1529 1528 1526 1523 1522 1521 1520 1519 1519 1518 1519 1519 1519 1519 1519 1519 1519 1519 1519 1520 1520 1520 1520 1521 1521 1521 1522 1523 1525 1529 1527 1524 1528 1528 1528 1530 1531 1534 1530 1531 1553 1564 1561 1562 1561 1560 1558 1558 1561 1561 1561 1562 1562 1563 1563 1563 1564
1538 1537 1537 1537 1536 1536 1535 1535 1535 1535 1534 1533 1532 1532 1531 1530 1529 1528 1527 1527 1527 1527 1527 1527 1528 1528 1528 1530 1531 1531 1530 1528 1527 1525 1522 1521 1521 1520 1520 1519 1519 1519 1519 1519 1519 1519 1519 1520 1520 1520 1520 1520 1520 1521 1522 1522 1524 1526 1525 1526 1533 1530 1526 1529 1530 1530 1530 1532 1535 1531 1536 1556 1563 1562 1563 1562 1562 1559 1559 1562 1562 1563 1563 1563 1564 1564 1564 1565
1537 1537 1536 1536 1536 1535 1535 1535 1535 1534 1534 1533 1532 1532 1531 1530 1530 1529 1528 1528 1527 1528 1528 1528 1528 1528 1529 1531 1532 1531 1529 1528 1527 1525 1523 1522 1521 1521 1520 1520 1520 1520 1520 1520 1520 1520 1520 1520 1521 1522 1522 1523 1525 1525 1524 1524 1526 1530 1529 1528 1532 1532 1529 1530 1530 1533 1531 1531 1535 1533 1543 1560 1561 1561 1563 1562 1563 1560 1560 1563 1563 1563 1564 1564 1564 1565 1565 1565
1537 1536 1536 1536 1535 1535 1535 1534 1534 1534 1534 1533 1533 1532 1531 1531 1530 1530 1529 1529 1529 1529 1529 1529 1529 1528 1530 1532 1532 1531 1530 1529 1527 1526 1524 1522 1522 1521 1521 1521 1520 1520 1520 1520 1521 1521 1521 1521 1522 1524 1526 1528 1531 1527 1524 1528 1531 1532 1534 1533 1535 1536 1534 1531 1529 1534 1534 1532 1538 1541 1549 1560 1560 1561 1563 1563 1563 1561 1561 1562 1563 1564 1564 1564 1565 1565 1565 1565
1537 1536 1536 1536 1535 1535 1534 1534 1534 1534 1533 1533 1533 1533 1532 1531 1531 1531 1530 1530 1529 1529 1529 1529 1529 1530 1533 1534 1534 1533 1532 1531 1528 1526 1524 1523 1523 1522 1522 1521 1521 1521 1521 1521 1522 1522 1521 1522 1523 1525 1530 1532 1534 1532 1530 1535 1538 1537 1538 1536 1537 1538 1536 1535 1534 1538 1539 1538 1544 1547 1553 1561 1562 1562 1563 1563 1564 1562 1562 1563 1563 1564 1564 1565 1565 1565 1565 1565
1537 1536 1536 1535 1535 1534 1534 1533 1533 1533 1533 1533 1533 1533 1533 1532 1531 1531 1531 1530 1530 1531 1533 1534 1532 1535 1538 1536 1536 1535 1534 1532 1529 1527 1525 1524 1523 1523 1522 1522 1522 1521 1521 1522 1524 1524 1524 1525 1528 1533 1538 1539 1540 1541 1538 1539 1540 1539 1541 1539 1539 1538 1536 1539 1541 1543 1543 1544 1552 1553 1555 1563 1564 1563 1564 1564 1564 1562 1563 1564 1564 1564 1564 1565 1565 1565 1565 1565
1536 1536 1535 1535 1534 1534 1533 1533 1533 1532 1532 1532 1532 1533 1533 1532 1533 1534 1533 1532 1533 1536 1539 1538 1537 1538 1539 1538 1537 1535 1534 1533 1530 1527 1526 1525 1524 1524 1523 1523 1523 1522 1524 1526 1527 1528 1528 1532 1540 1544 1546 1544 1543 1545 1542 1542 1542 1540 1541 1540 1542 1542 1539 1541 1544 1546 1544 1547 1559 1561 1559 1564 1564 1565 1565 1564 1564 1564 1563 1564 1564 1565 1564 1564 1564 1564 1565 1564
1536 1535 1535 1534 1534 1533 1533 1532 1532 1532 1532 1532 1532 1532 1532 1532 1533 1534 1535 1536 1538 1540 1540 1540 1539 1539 1539 1539 1537 1536 1535 1533 1530 1529 1527 1526 1525 1524 1525 1524 1524 1525 1529 1530 1530 1531 1530 1537 1546 1547 1547 1546 1545 1545 1543 1542 1542 1541 1540 1539 1541 1542 1542 1544 1545 1546 1544 1546 1560 1564 1562 1566 1566 1565 1565 1564 1564 1563 1563 1563 1563 1564 1564 1564 1564 1563 1564 1564
1535 1535 1534 1534 1533 1533 1532 1532 1532 1532 1531 1531 1531 1532 1532 1532 1533 1533 1534 1537 1540 1541 1541 1541 1540 1540 1540 1539 1538 1537 1535 1532 1530 1529 1528 1527 1526 1525 1527 1528 1529 1532 1532 1531 1532 1533 1535 1541 1547 1546 1546 1546 1545 1545 1543 1541 1541 1541 1540 1538 1540 1541 1542 1544 1545 1548 1545 1545 1559 1565 1563 1566 1567 1565 1565 1564 1564 1563 1562 1562 1562 1562 1562 1562 1563 1562 1562 1562
1535 1535 1534 1534 1533 1532 1532 1532 1531 1531 1531 1531 1531 1531 1531 1533 1534 1533 1533 1536 1540 1542 1542 1541 1541 1541 1540 1540 1540 1538 1535 1535 1534 1532 1530 1529 1528 1528 1530 1531 1533 1535 1536 1534 1534 1537 1541 1545 1546 1546 1545 1544 1543 1544 1542 1541 1541 1542 1540 1539 1541 1543 1543 1541 1543 1549 1548 1546 1555 1562 1565 1568 1567 1566 1566 1564 1563 1564 1563 1562 1562 1562 1561 1561 1561 1561 1560 1560
1535 1535 1534 1533 1533 1532 1532 1531 1531 1531 1530 1531 1531 1531 1532 1533 1533 1534 1534 1536 1540 1542 1542 1542 1542 1541 1541 1540 1540 1539 1537 1538 1538 1535 1533 1531 1530 1531 1532 1534 1536 1539 1542 1542 1539 1542 1546 1548 1547 1546 1545 1544 1543 1543 1544 1543 1542 1544 1544 1542 1543 1545 1544 1543 1545 1549 1550 1551 1555 1557 1560 1565 1567 1565 1565 1564 1564 1563 1563 1562 1562 1561 1561 1560 1560 1559 1559 1558
1535 1534 1534 1533 1532 1532 1531 1531 1531 1530 1530 1531 1531 1531 1532 1533 1533 1533 1534 1537 1541 1543 1542 1542 1542 1542 1542 1541 1540 1540 1539 1539 1541 1539 1536 1534 1533 1533 1535 1536 1537 1541 1546 1546 1543 1545 1549 1549 1547 1546 1546 1545 1544 1545 1548 1547 1544 1543 1544 1544 1544 1546 1546 1545 1546 1546 1546 1549 1553 1553 1548 1553 1565 1567 1562 1563 1563 1562 1562 1561 1560 1560 1559 1559 1558 1557 1557 1557
1535 1534 1534 1533 1532 1531 1530 1530 1530 1530 1530 1530 1531 1532 1532 1533 1534 1534 1535 1540 1545 1545 1544 1543 1544 1543 1543 1542 1541 1540 1540 1541 1543 1542 1539 1537 1536 1535 1537 1539 1539 1542 1545 1545 1545 1547 1550 1550 1548 1548 1548 1547 1546 1547 1549 1550 1547 1543 1543 1545 1546 1547 1546 1545 1546 1545 1543 1544 1550 1552 1545 1547 1560 1563 1560 1562 1562 1561 1561 1559 1558 1557 1556 1555 1555 1555 1555 1555
1534 1534 1533 1532 1531 1530 1530 1530 1530 1530 1530 1530 1530 1531 1532 1533 1534 1534 1537 1544 1549 1548 1546 1545 1545 1545 1545 1545 1542 1541 1544 1545 1544 1543 1541 1539 1538 1536 1539 1542 1543 1544 1546 1544 1546 1550 1551 1550 1549 1549 1548 1547 1548 1549 1549 1552 1549 1542 1542 1545 1546 1546 1545 1546 1546 1545 1544 1546 1551 1553 1552 1550 1550 1553 1558 1561 1561 1560 1558 1557 1555 1553 1553 1553 1553 1553 1553 1553
1534 1534 1533 1532 1531 1530 1530 1530 1530 1530 1530 1530 1530 1531 1532 1534 1535 1536 1540 1549 1552 1550 1549 1548 1547 1547 1548 1548 1545 1545 1548 1548 1545 1546 1543 1540 1540 1538 1539 1545 1545 1547 1546 1543 1547 1553 1553 1551 1551 1551 1549 1549 1550 1551 1551 1552 1548 1543 1544 1547 1546 1545 1545 1546 1545 1545 1547 1546 1546 1550 1555 1552 1544 1550 1561 1561 1560 1559 1554 1552 1551 1549 1550 1550 1550 1551 1551 1551
1534 1533 1532 1532 1531 1530 1530 1530 1530 1529 1529 1530 1530 1531 1533 1534 1536 1539 1544 1551 1553 1551 1551 1550 1548 1549 1550 1549 1548 1548 1550 1549 1549 1549 1545 1542 1542 1540 1542 1546 1546 1547 1545 1543 1548 1554 1553 1553 1553 1552 1553 1552 1551 1552 1551 1551 1549 1544 1544 1546 1546 1546 1547 1547 1546 1546 1546 1545 1544 1547 1552 1550 1543 1549 1562 1561 1558 1555 1548 1547 1547 1546 1548 1547 1548 1548 1548 1549
1534 1533 1532 1531 1530 1530 1530 1530 1529 1529 1529 1530 1530 1531 1533 1534 1539 1543 1548 1552 1554 1553 1552 1551 1552 1554 1552 1550 1551 1551 1551 1551 1552 1550 1546 1545 1544 1543 1545 1546 1547 1548 1548 1548 1551 1554 1554 1553 1554 1553 1554 1554 1551 1552 1551 1551 1550 1545 1545 1544 1542 1546 1546 1547 1551 1549 1544 1543 1545 1547 1549 1550 1544 1544 1553 1554 1548 1545 1543 1544 1544 1544 1545 1544 1545 1546 1546 1547
1534 1533 1532 1531 1530 1530 1529 1529 1529 1529 1529 1530 1531 1532 1533 1537 1542 1546 1551 1555 1556 1554 1554 1554 1556 1557 1556 1556 1556 1555 1554 1554 1554 1552 1550 1550 1548 1546 1547 1550 1551 1549 1550 1553 1553 1555 1555 1552 1554 1554 1554 1554 1552 1551 1550 1551 1550 1546 1545 1542 1538 1544 1544 1542 1546 1546 1543 1542 1545 1548 1547 1549 1546 1537 1540 1544 1540 1541 1542 1541 1542 1542 1541 1541 1542 1543 1544 1544
1534 1533 1532 1531 1530 1529 1529 1529 1529 1529 1530 1530 1531 1532 1534 1538 1545 1552 1556 1556 1556 1557 1559 1559 1559 1559 1559 1560 1560 1559 1558 1557 1557 1557 1558 1559 1558 1558 1559 1563 1562 1553 1553 1560 1559 1557 1556 1555 1556 1554 1554 1555 1552 1550 1549 1549 1549 1546 1547 1547 1544 1550 1552 1549 1550 1554 1553 1545 1544 1549 1547 1545 1543 1532 1533 1539 1538 1539 1540 1538 1540 1539 1538 1539 1539 1539 1540 1541
1534 1533 1532 1531 1530 1529 1529 1529 1529 1529 1530 1531 1532 1533 1535 1538 1548 1562 1563 1557 1558 1562 1563 1562 1562 1562 1561 1560 1561 1562 1561 1561 1561 1561 1562 1563 1564 1566 1566 1568 1569 1561 1558 1564 1564 1559 1555 1555 1557 1554 1554 1555 1553 1554 1553 1550 1551 1550 1552 1553 1552 1558 1562 1562 1566 1567 1558 1545 1544 1553 1550 1543 1537 1530 1533 1536 1535 1537 1538 1537 1537 1536 1537 1536 1536 1537 1537 1537
1534 1533 1532 1531 1530 1530 1529 1529 1529 1530 1531 1532 1533 1535 1537 1542 1556 1566 1564 1561 1564 1564 1564 1564 1563 1562 1561 1561 1564 1564 1562 1563 1564 1563 1563 1563 1565 1567 1568 1567 1568 1567 1565 1565 1568 1568 1560 1556 1557 1556 1556 1556 1555 1557 1557 1555 1555 1555 1558 1556 1554 1559 1562 1562 1565 1562 1555 1552 1551 1550 1545 1539 1532 1529 1534 1535 1534 1536 1535 1535 1535 1533 1534 1534 1533 1534 1533 1533
1535 1534 1533 1531 1530 1530 1529 1529 1530 1530 1531 1532 1535 1538 1542 1552 1564 1565 1562 1564 1567 1564 1564 1566 1563 1560 1561 1564 1566 1565 1563 1563 1566 1566 1566 1568 1570 1572 1573 1570 1570 1572 1568 1564 1569 1574 1567 1560 1559 1558 1557 1558 1556 1557 1557 1557 1555 1556 1560 1556 1555 1560 1561 1563 1567 1566 1567 1567 1558 1548 1540 1539 1536 1532 1535 1536 1533 1535 1533 1532 1533 1531 1531 1532 1531 1531 1530 1530
1535 1534 1532 1531 1531 1530 1529 1530 1530 1531 1532 1532 1535 1544 1553 1560 1564 1564 1564 1566 1567 1566 1565 1563 1562 1561 1561 1563 1565 1565 1564 1564 1565 1567 1569 1573 1575 1575 1575 1574 1573 1574 1570 1568 1572 1572 1566 1561 1560 1558 1558 1558 1557 1557 1557 1556 1554 1556 1558 1557 1560 1564 1561 1562 1567 1573 1579 1570 1557 1551 1542 1537 1536 1530 1533 1537 1533 1533 1533 1531 1530 1529 1529 1530 1528 1527 1527 1527
1535 1534 1533 1532 1531 1530 1530 1530 1530 1531 1533 1532 1538 1552 1564 1565 1564 1566 1567 1566 1567 1569 1565 1561 1563 1565 1565 1565 1566 1566 1565 1563 1564 1566 1570 1574 1574 1574 1576 1574 1573 1574 1573 1572 1573 1573 1570 1563 1559 1560 1558 1556 1558 1557 1557 1557 1556 1556 1557 1558 1561 1563 1562 1564 1564 1568 1575 1566 1554 1553 1548 1542 1538 1529 1529 1536 1534 1530 1531 1529 1528 1529 1527 1527 1525 1524 1524 1524
1535 1534 1533 1532 1532 1532 1531 1530 1531 1532 1532 1537 1549 1561 1566 1566 1565 1567 1567 1566 1567 1568 1564 1563 1565 1568 1570 1569 1568 1569 1567 1563 1565 1569 1571 1573 1572 1574 1576 1574 1573 1574 1573 1572 1571 1574 1575 1564 1557 1560 1559 1557 1558 1557 1556 1557 1556 1556 1558 1559 1560 1559 1560 1565 1565 1563 1568 1568 1560 1557 1558 1552 1542 1530 1525 1527 1526 1524 1525 1527 1527 1526 1524 1523 1522 1521 1521 1521
1535 1535 1534 1534 1533 1533 1532 1532 1533 1532 1531 1541 1558 1564 1564 1566 1567 1566 1567 1567 1567 1566 1565 1567 1568 1569 1571 1571 1570 1571 1570 1567 1570 1572 1571 1572 1573 1574 1576 1575 1573 1572 1572 1573 1572 1573 1576 1568 1558 1558 1560 1559 1557 1557 1559 1559 1558 1557 1558 1560 1561 1562 1564 1566 1569 1568 1566 1569 1567 1560 1552 1539 1531 1528 1521 1517 1520 1520 1521 1524 1524 1522 1520 1520 1519 1518 1518 1518
1535 1535 1535 1535 1534 1534 1534 1533 1533 1534 1538 1550 1561 1563 1564 1566 1566 1566 1567 1566 1566 1566 1566 1569 1570 1568 1570 1573 1573 1573 1573 1572 1572 1572 1572 1574 1574 1573 1575 1575 1574 1573 1572 1573 1573 1573 1575 1572 1563 1558 1559 1559 1556 1558 1560 1560 1561 1560 1559 1562 1562 1564 1569 1568 1571 1575 1570 1567 1571 1569 1551 1527 1520 1524 1518 1514 1517 1518 1519 1520 1519 1518 1517 1516 1516 1516 1515 1515
1535 1536 1536 1536 1535 1535 1535 1535 1538 1544 1550 1558 1562 1563 1565 1565 1565 1567 1567 1566 1567 1566 1566 1568 1569 1569 1570 1572 1573 1573 1574 1573 1573 1574 1574 1574 1573 1572 1574 1574 1573 1574 1572 1571 1573 1573 1572 1573 1569 1563 1559 1556 1556 1560 1562 1560 1562 1561 1559 1561 1562 1563 1568 1566 1567 1576 1578 1572 1571 1573 1556 1526 1514 1518 1515 1514 1515 1515 1517 1517 1515 1515 1514 1513 1514 1513 1512 1512
1535 1537 1538 1536 1536 1535 1535 1540 1549 1552 1556 1560 1561 1563 1565 1564 1566 1567 1566 1567 1567 1566 1567 1568 1569 1571 1571 1571 1572 1574 1573 1572 1574 1574 1574 1574 1573 1572 1573 1573 1573 1573 1572 1571 1573 1574 1573 1574 1573 1565 1559 1557 1558 1560 1561 1560 1561 1563 1561 1563 1565 1566 1567 1565 1563 1568 1577 1578 1576 1581 1566 1527 1509 1514 1513 1511 1513 1513 1514 1515 1514 1513 1511 1511 1511 1510 1510 1509
1536 1538 1539 1537 1538 1537 1537 1546 1556 1558 1559 1563 1563 1564 1565 1565 1566 1567 1567 1567 1567 1567 1567 1568 1570 1571 1571 1572 1573 1573 1573 1572 1573 1573 1573 1574 1573 1572 1572 1573 1572 1573 1573 1572 1573 1573 1573 1574 1571 1564 1559 1559 1560 1561 1562 1562 1562 1562 1562 1564 1565 1564 1563 1565 1566 1566 1570 1570 1570 1578 1564 1522 1504 1513 1512 1510 1513 1512 1512 1513 1512 1511 1509 1509 1509 1507 1507 1506
1537 1539 1539 1538 1538 1537 1538 1546 1556 1561 1563 1564 1564 1565 1565 1566 1566 1567 1567 1567 1567 1568 1568 1569 1571 1570 1571 1572 1572 1572 1573 1571 1571 1573 1573 1573 1572 1571 1572 1572 1572 1572 1571 1571 1572 1572 1571 1571 1570 1566 1561 1557 1555 1558 1559 1559 1561 1559 1559 1563 1563 1564 1567 1568 1572 1574 1569 1561 1560 1564 1547 1514 1505 1514 1512 1510 1514 1511 1511 1512 1510 1509 1508 1506 1506 1505 1504 1503
1538 1539 1540 1539 1538 1538 1541 1546 1551 1558 1563 1563 1564 1566 1566 1566 1568 1568 1568 1568 1568 1568 1568 1569 1570 1570 1572 1572 1571 1573 1574 1571 1570 1573 1573 1573 1572 1570 1571 1571 1571 1572 1571 1571 1572 1571 1570 1572 1571 1567 1564 1559 1553 1553 1553 1554 1559 1558 1558 1562 1561 1563 1565 1562 1567 1573 1564 1560 1563 1554 1530 1506 1504 1512 1511 1510 1513 1510 1510 1510 1508 1508 1506 1503 1503 1502 1500 1500
1538 1540 1543 1543 1541 1541 1546 1551 1551 1554 1560 1561 1563 1568 1568 1567 1569 1568 1568 1568 1569 1569 1569 1569 1570 1570 1571 1572 1571 1572 1573 1573 1572 1572 1572 1572 1570 1570 1571 1570 1571 1571 1571 1571 1571 1572 1574 1574 1571 1565 1563 1559 1553 1551 1552 1554 1557 1556 1555 1558 1559 1562 1563 1561 1565 1565 1557 1561 1558 1539 1522 1511 1504 1507 1510 1508 1509 1509 1508 1507 1506 1505 1503 1501 1501 1499 1497 1496
1538 1542 1545 1545 1546 1548 1551 1554 1555 1555 1558 1559 1562 1567 1568 1568 1569 1569 1568 1569 1569 1569 1569 1570 1570 1570 1570 1571 1571 1571 1572 1574 1573 1571 1572 1572 1570 1570 1570 1569 1571 1570 1571 1572 1571 1573 1573 1569 1568 1568 1562 1557 1555 1553 1553 1556 1556 1552 1552 1553 1553 1559 1563 1561 1558 1553 1552 1557 1542 1521 1524 1522 1506 1503 1507 1506 1505 1506 1505 1504 1502 1501 1500 1498 1497 1496 1494 1492
1539 1544 1547 1546 1548 1553 1555 1555 1556 1557 1559 1560 1564 1567 1568 1568 1569 1568 1568 1569 1569 1569 1569 1569 1570 1570 1570 1571 1570 1570 1571 1571 1570 1571 1572 1572 1572 1570 1568 1569 1571 1569 1570 1572 1570 1572 1572 1566 1567 1570 1562 1557 1558 1556 1554 1556 1556 1553 1552 1550 1549 1554 1558 1554 1549 1548 1550 1545 1526 1514 1522 1519 1505 1503 1504 1501 1502 1502 1501 1500 1499 1498 1497 1495 1494 1493 1491 1489
1540 1543 1547 1548 1549 1554 1556 1556 1557 1558 1559 1561 1564 1567 1567 1567 1567 1568 1569 1569 1568 1569 1568 1567 1568 1570 1571 1571 1570 1570 1570 1567 1566 1569 1570 1571 1572 1570 1568 1567 1568 1569 1570 1571 1571 1572 1570 1565 1569 1572 1564 1556 1556 1555 1554 1556 1555 1550 1548 1547 1546 1547 1549 1547 1543 1544 1545 1537 1523 1519 1522 1514 1504 1502 1500 1497 1499 1499 1498 1497 1496 1494 1493 1491 1490 1489 1487 1485
1540 1541 1544 1547 1551 1555 1557 1557 1558 1557 1560 1562 1562 1565 1567 1566 1566 1567 1568 1567 1566 1568 1568 1566 1567 1569 1570 1571 1570 1568 1568 1566 1566 1567 1568 1569 1570 1570 1568 1565 1566 1569 1569 1569 1572 1572 1568 1566 1570 1573 1564 1552 1548 1550 1552 1554 1554 1549 1544 1542 1543 1542 1542 1544 1543 1543 1544 1537 1526 1525 1526 1514 1500 1496 1496 1496 1496 1496 1495 1493 1491 1490 1489 1488 1486 1485 1483 1482
1539 1540 1542 1544 1550 1557 1557 1557 1559 1558 1559 1561 1561 1563 1566 1565 1565 1566 1566 1567 1566 1566 1567 1566 1567 1568 1569 1570 1569 1567 1566 1566 1566 1565 1566 1566 1566 1566 1566 1564 1565 1568 1568 1569 1571 1570 1568 1568 1569 1570 1563 1551 1547 1550 1550 1550 1552 1546 1535 1529 1532 1536 1536 1534 1535 1536 1534 1528 1524 1526 1524 1508 1493 1492 1495 1494 1493 1493 1491 1489 1488 1486 1485 1484 1482 1480 1479 1478
1539 1541 1542 1542 1549 1558 1558 1558 1559 1557 1557 1560 1561 1562 1563 1563 1564 1564 1564 1565 1566 1565 1566 1566 1566 1567 1567 1567 1566 1565 1564 1565 1564 1564 1564 1564 1564 1563 1563 1564 1565 1565 1566 1570 1571 1571 1572 1567 1566 1570 1563 1551 1550 1554 1553 1553 1546 1529 1517 1513 1516 1525 1527 1524 1525 1526 1523 1520 1519 1515 1506 1493 1489 1493 1493 1491 1491 1490 1487 1485 1484 1481 1480 1480 1478 1477 1475 1473